Location: Borovka
(49.7741°N, 14.5280°E)
Time: 02:21:53
(UTC+00:00)

Cosmos 2058 - Pass Details

Date: 17 November 2025
Orbit: 529 x 540 km, 82.5° (Epoch: 12 December)

Event Time Altitude Azimuth Distance (km) Brightness Sun altitude
Rises 17:36:20 0° 343° (NNW) 2,707 6.5 -22.4°
Reaches altitude 10° 17:38:35 10° 336° (NNW) 1,812 5.7 -22.8°
Maximum altitude 17:42:17 38° 267° (W) 834 4.2 -23.4°
Drops below altitude 10° 17:45:59 10° 199° (SSW) 1,803 5.7 -24.0°
Sets 17:48:13 0° 191° (S) 2,691 6.5 -24.3°
